29-08-2022, 00:00:06,     64,    0.0,   14.6,   0.00,   0.00, 1019.3,   65.5, -999.0
29-08-2022, 00:00:15,     64,    0.0,   14.6,   0.00,   0.00, 1019.3,   65.5, -999.0
29-08-2022, 00:00:26,     64,    0.0,   14.6,   0.00,   0.00, 1019.4,   65.6, -999.0
29-08-2022, 00:00:36,     64,    0.0,   14.5,   0.00,   0.00, 1019.4,   65.6, -999.0
29-08-2022, 00:00:45,     64,    0.0,   14.5,   0.00,   0.00, 1019.3,   65.7, -999.0
29-08-2022, 00:00:55,     63,    0.0,   14.4,   0.00,   0.00, 1019.3,   65.7, -999.0
29-08-2022, 00:01:06,     64,    0.0,   14.4,   0.00,   0.00, 1019.3,   65.8, -999.0
29-08-2022, 00:01:15,     64,    0.0,   14.4,   0.00,   0.00, 1019.3,   65.9, -999.0
29-08-2022, 00:01:25,     64,    0.0,   14.4,   0.00,   0.00, 1019.3,   65.9, -999.0
29-08-2022, 00:01:35,     64,    0.0,   14.3,   0.00,   0.00, 1019.3,   66.1, -999.0
29-08-2022, 00:01:45,     64,    0.0,   14.3,   0.00,   0.00, 1019.3,   66.0, -999.0
29-08-2022, 00:01:55,     64,    0.0,   14.3,   0.00,   0.00, 1019.3,   66.1, -999.0
29-08-2022, 00:02:05,     64,    0.0,   14.3,   0.00,   0.00, 1019.3,   66.3, -999.0
29-08-2022, 00:02:15,     64,    0.0,   14.3,   0.00,   0.00, 1019.3,   66.6, -999.0
29-08-2022, 00:02:25,     64,    0.0,   14.3,   0.00,   0.00, 1019.3,   66.5, -999.0
29-08-2022, 00:02:35,     64,    0.0,   14.4,   0.00,   0.00, 1019.3,   66.5, -999.0
29-08-2022, 00:02:45,     63,    0.0,   14.4,   0.00,   0.00, 1019.3,   66.5, -999.0
29-08-2022, 00:02:55,     64,    0.0,   14.3,   0.00,   0.00, 1019.4,   66.4, -999.0
29-08-2022, 00:03:05,     64,    0.0,   14.3,   0.00,   0.00, 1019.4,   66.5, -999.0
29-08-2022, 00:03:15,     64,    0.0,   14.3,   0.00,   0.00, 1019.3,   66.6, -999.0
29-08-2022, 00:03:24,     64,    0.0,   14.2,   0.00,   0.00, 1019.4,   66.5, -999.0
29-08-2022, 00:03:35,     64,    0.0,   14.2,   0.00,   0.00, 1019.4,   66.6, -999.0
29-08-2022, 00:03:45,     64,    0.0,   14.2,   0.00,   0.00, 1019.4,   66.6, -999.0
29-08-2022, 00:03:54,     64,    0.0,   14.2,   0.00,   0.00, 1019.3,   66.6, -999.0
29-08-2022, 00:04:04,     64,    0.0,   14.2,   0.00,   0.00, 1019.4,   66.7, -999.0
29-08-2022, 00:04:14,     64,    0.0,   14.2,   0.00,   0.00, 1019.4,   66.7, -999.0
29-08-2022, 00:04:24,     64,    0.0,   14.1,   0.00,   0.00, 1019.4,   66.8, -999.0
29-08-2022, 00:04:34,     64,    0.0,   14.1,   0.00,   0.00, 1019.4,   66.8, -999.0
29-08-2022, 00:04:44,     64,    0.0,   14.1,   0.00,   0.00, 1019.4,   66.9, -999.0
29-08-2022, 00:04:54,     64,    0.0,   14.1,   0.00,   0.00, 1019.4,   67.0, -999.0
29-08-2022, 00:05:04,     64,    0.0,   14.1,   0.00,   0.00, 1019.4,   67.0, -999.0
29-08-2022, 00:05:14,     64,    0.0,   14.1,   0.00,   0.00, 1019.4,   67.0, -999.0
29-08-2022, 00:05:24,     64,    0.0,   14.1,   0.00,   0.00, 1019.4,   67.2, -999.0
29-08-2022, 00:05:34,     64,    0.0,   14.1,   0.00,   0.00, 1019.3,   67.2, -999.0
29-08-2022, 00:05:44,     64,    0.0,   14.1,   0.00,   0.00, 1019.4,   67.2, -999.0
29-08-2022, 00:05:54,     64,    0.0,   14.1,   0.00,   0.00, 1019.4,   67.2, -999.0
29-08-2022, 00:06:04,     64,    0.0,   14.1,   0.00,   0.00, 1019.4,   67.3, -999.0
29-08-2022, 00:06:14,     64,    0.0,   14.1,   0.00,   0.00, 1019.3,   67.3, -999.0
29-08-2022, 00:06:23,     64,    0.0,   14.1,   0.00,   0.00, 1019.3,   67.3, -999.0
29-08-2022, 00:06:34,     64,    0.0,   14.1,   0.00,   0.00, 1019.3,   67.3, -999.0
29-08-2022, 00:06:44,     64,    0.0,   14.0,   0.00,   0.00, 1019.3,   67.2, -999.0
29-08-2022, 00:06:53,     64,    0.0,   14.1,   0.00,   0.00, 1019.3,   67.4, -999.0
29-08-2022, 00:07:03,     64,    0.0,   14.1,   0.00,   0.00, 1019.3,   67.4, -999.0
29-08-2022, 00:07:14,     64,    0.0,   14.0,   0.00,   0.00, 1019.4,   67.5, -999.0
29-08-2022, 00:07:23,     64,    0.0,   14.1,   0.00,   0.00, 1019.3,   67.4, -999.0
29-08-2022, 00:07:33,     64,    0.0,   14.0,   0.00,   0.00, 1019.4,   67.6, -999.0
29-08-2022, 00:07:43,     64,    0.0,   14.0,   0.00,   0.00, 1019.4,   67.6, -999.0
29-08-2022, 00:07:53,     64,    0.0,   14.0,   0.00,   0.00, 1019.4,   67.7, -999.0
29-08-2022, 00:08:03,     64,    0.0,   14.1,   0.00,   0.00, 1019.4,   67.8, -999.0
29-08-2022, 00:08:13,     64,    0.0,   14.0,   0.00,   0.00, 1019.4,   67.8, -999.0
29-08-2022, 00:08:23,     64,    0.0,   14.1,   0.00,   0.00, 1019.4,   67.9, -999.0
29-08-2022, 00:08:33,     64,    0.0,   14.1,   0.00,   0.00, 1019.4,   67.8, -999.0
29-08-2022, 00:08:43,     64,    0.0,   14.1,   0.00,   0.00, 1019.4,   67.9, -999.0
29-08-2022, 00:08:53,     64,    0.0,   14.1,   0.00,   0.00, 1019.4,   67.8, -999.0
29-08-2022, 00:09:03,     64,    0.0,   14.2,   0.00,   0.00, 1019.4,   67.9, -999.0
29-08-2022, 00:09:13,     64,    0.0,   14.1,   0.00,   0.00, 1019.4,   68.0, -999.0
29-08-2022, 00:09:23,     64,    0.0,   14.2,   0.00,   0.00, 1019.4,   67.9, -999.0
29-08-2022, 00:09:32,     64,    0.0,   14.2,   0.00,   0.00, 1019.4,   68.1, -999.0
29-08-2022, 00:09:43,     64,    0.0,   14.3,   0.00,   0.00, 1019.4,   67.8, -999.0
29-08-2022, 00:09:52,     64,    0.0,   14.4,   0.00,   0.00, 1019.4,   67.8, -999.0
29-08-2022, 00:10:02,     64,    0.0,   14.3,   0.00,   0.00, 1019.4,   67.7, -999.0
29-08-2022, 00:10:12,     64,    0.0,   14.2,   0.00,   0.00, 1019.4,   67.7, -999.0
29-08-2022, 00:10:22,     64,    0.0,   14.3,   0.00,   0.00, 1019.4,   67.7, -999.0
29-08-2022, 00:10:32,     64,    0.0,   14.3,   0.00,   0.00, 1019.4,   67.6, -999.0
29-08-2022, 00:10:42,     64,    0.0,   14.3,   0.00,   0.00, 1019.4,   67.7, -999.0
29-08-2022, 00:10:52,     64,    0.0,   14.2,   0.00,   0.00, 1019.4,   67.6, -999.0
29-08-2022, 00:11:02,     64,    0.0,   14.2,   0.00,   0.00, 1019.4,   67.7, -999.0
29-08-2022, 00:11:12,     64,    0.0,   14.2,   0.00,   0.00, 1019.4,   67.6, -999.0
29-08-2022, 00:11:22,     64,    0.0,   14.2,   0.00,   0.00, 1019.4,   67.7, -999.0
29-08-2022, 00:11:32,     64,    0.0,   14.1,   0.00,   0.00, 1019.4,   67.7, -999.0
29-08-2022, 00:11:42,     64,    0.0,   14.1,   0.00,   0.00, 1019.4,   67.6, -999.0
29-08-2022, 00:11:52,     64,    0.0,   14.1,   0.00,   0.00, 1019.4,   67.5, -999.0
29-08-2022, 00:12:02,     64,    0.0,   14.1,   0.00,   0.00, 1019.4,   67.5, -999.0
29-08-2022, 00:12:12,     64,    0.0,   14.1,   0.00,   0.00, 1019.4,   67.7, -999.0
29-08-2022, 00:12:22,     64,    0.0,   14.1,   0.00,   0.00, 1019.4,   67.8, -999.0
29-08-2022, 00:12:31,     63,    0.0,   14.1,   0.00,   0.00, 1019.4,   67.8, -999.0
29-08-2022, 00:12:41,     64,    0.0,   14.0,   0.00,   0.00, 1019.4,   67.8, -999.0
29-08-2022, 00:12:52,     64,    0.0,   14.0,   0.00,   0.00, 1019.4,   67.8, -999.0
29-08-2022, 00:13:01,     64,    0.0,   14.0,   0.00,   0.00, 1019.4,   67.8, -999.0
29-08-2022, 00:13:11,     64,    0.0,   14.0,   0.00,   0.00, 1019.4,   67.8, -999.0
29-08-2022, 00:13:21,     64,    0.0,   14.0,   0.00,   0.00, 1019.4,   67.8, -999.0
29-08-2022, 00:13:31,     64,    0.0,   13.9,   0.00,   0.00, 1019.4,   68.0, -999.0
29-08-2022, 00:13:41,     64,    0.0,   13.9,   0.00,   0.00, 1019.4,   67.8, -999.0
29-08-2022, 00:13:51,     64,    0.0,   13.9,   0.00,   0.00, 1019.4,   68.0, -999.0
29-08-2022, 00:14:01,     64,    0.0,   13.9,   0.00,   0.00, 1019.4,   68.0, -999.0
29-08-2022, 00:14:11,     63,    0.0,   13.9,   0.00,   0.00, 1019.4,   68.0, -999.0
29-08-2022, 00:14:21,     64,    0.0,   13.9,   0.00,   0.00, 1019.4,   68.1, -999.0
29-08-2022, 00:14:31,     64,    0.0,   13.9,   0.00,   0.00, 1019.4,   68.1, -999.0
29-08-2022, 00:14:41,     63,    0.0,   13.9,   0.00,   0.00, 1019.4,   68.2, -999.0
29-08-2022, 00:14:51,     64,    0.0,   13.9,   0.00,   0.00, 1019.4,   68.1, -999.0
29-08-2022, 00:15:01,     64,    0.0,   13.8,   0.00,   0.00, 1019.4,   68.2, -999.0
29-08-2022, 00:15:10,     64,    0.0,   13.8,   0.00,   0.00, 1019.4,   68.2, -999.0
29-08-2022, 00:15:21,     64,    0.0,   13.8,   0.00,   0.00, 1019.4,   68.2, -999.0
29-08-2022, 00:15:31,     64,    0.0,   13.8,   0.00,   0.00, 1019.4,   68.4, -999.0
29-08-2022, 00:15:40,     64,    0.0,   13.8,   0.00,   0.00, 1019.4,   68.5, -999.0
29-08-2022, 00:15:50,     64,    0.0,   13.9,   0.00,   0.00, 1019.4,   68.4, -999.0
29-08-2022, 00:16:01,     64,    0.0,   13.9,   0.00,   0.00, 1019.4,   68.6, -999.0
29-08-2022, 00:16:10,     64,    0.0,   13.8,   0.00,   0.00, 1019.4,   68.6, -999.0
29-08-2022, 00:16:20,     64,    0.0,   13.8,   0.00,   0.00, 1019.4,   68.6, -999.0
29-08-2022, 00:16:30,     64,    0.0,   13.9,   0.00,   0.00, 1019.4,   68.6, -999.0
29-08-2022, 00:16:40,     64,    0.0,   13.8,   0.00,   0.00, 1019.4,   68.6, -999.0
29-08-2022, 00:16:50,     64,    0.0,   13.8,   0.00,   0.00, 1019.4,   68.6, -999.0
29-08-2022, 00:17:00,     64,    0.0,   13.8,   0.00,   0.00, 1019.4,   68.7, -999.0
29-08-2022, 00:17:10,     64,    0.0,   13.8,   0.00,   0.00, 1019.4,   68.6, -999.0
29-08-2022, 00:17:20,     64,    0.0,   13.8,   0.00,   0.00, 1019.4,   68.7, -999.0
29-08-2022, 00:17:30,     64,    0.0,   13.8,   0.00,   0.00, 1019.4,   68.6, -999.0
29-08-2022, 00:17:40,     64,    0.0,   13.8,   0.00,   0.00, 1019.4,   68.6, -999.0
29-08-2022, 00:17:50,     67,    0.0,   13.6,   0.00,   0.00, 1019.4,   68.6, -999.0
29-08-2022, 00:18:00,     64,    0.0,   13.7,   0.00,   0.00, 1019.4,   68.8, -999.0
29-08-2022, 00:18:10,     64,    0.0,   13.7,   0.00,   0.00, 1019.4,   68.7, -999.0
29-08-2022, 00:18:19,     64,    0.0,   13.7,   0.00,   0.00, 1019.4,   68.7, -999.0
29-08-2022, 00:18:30,     64,    0.0,   13.7,   0.00,   0.00, 1019.4,   68.7, -999.0
29-08-2022, 00:18:39,     64,    0.0,   13.7,   0.00,   0.00, 1019.4,   68.7, -999.0
29-08-2022, 00:18:49,     63,    0.0,   13.7,   0.00,   0.00, 1019.4,   68.6, -999.0
29-08-2022, 00:19:00,     64,    0.0,   13.7,   0.00,   0.00, 1019.4,   68.8, -999.0
29-08-2022, 00:19:09,     64,    0.0,   13.7,   0.00,   0.00, 1019.4,   68.8, -999.0
29-08-2022, 00:19:19,     64,    0.0,   13.7,   0.00,   0.00, 1019.4,   68.8, -999.0
29-08-2022, 00:19:29,     64,    0.0,   13.8,   0.00,   0.00, 1019.5,   68.8, -999.0
29-08-2022, 00:19:39,     64,    0.0,   13.7,   0.00,   0.00, 1019.5,   68.9, -999.0
29-08-2022, 00:19:49,     64,    0.0,   13.7,   0.00,   0.00, 1019.4,   68.9, -999.0
29-08-2022, 00:19:59,     64,    0.0,   13.8,   0.00,   0.00, 1019.4,   68.9, -999.0
29-08-2022, 00:20:09,     64,    0.0,   13.8,   0.00,   0.00, 1019.5,   68.9, -999.0
29-08-2022, 00:20:19,     64,    0.0,   13.9,   0.00,   0.00, 1019.4,   68.9, -999.0
29-08-2022, 00:20:29,     64,    0.0,   13.8,   0.00,   0.00, 1019.4,   68.9, -999.0
29-08-2022, 00:20:39,     64,    0.0,   13.8,   0.00,   0.00, 1019.4,   68.8, -999.0
29-08-2022, 00:20:49,     64,    0.0,   13.8,   0.00,   0.00, 1019.4,   68.8, -999.0
29-08-2022, 00:20:59,     64,    0.0,   13.8,   0.00,   0.00, 1019.4,   68.9, -999.0
29-08-2022, 00:21:09,     64,    0.0,   13.8,   0.00,   0.00, 1019.4,   68.8, -999.0
29-08-2022, 00:21:18,     64,    0.0,   13.8,   0.00,   0.00, 1019.4,   68.8, -999.0
29-08-2022, 00:21:29,     64,    0.0,   13.8,   0.00,   0.00, 1019.4,   68.9, -999.0
29-08-2022, 00:21:39,     64,    0.0,   13.7,   0.00,   0.00, 1019.4,   68.8, -999.0
29-08-2022, 00:21:48,     64,    0.0,   13.8,   0.00,   0.00, 1019.4,   68.8, -999.0
29-08-2022, 00:21:58,     64,    0.0,   13.8,   0.00,   0.00, 1019.4,   68.8, -999.0
29-08-2022, 00:22:09,     64,    0.0,   13.7,   0.00,   0.00, 1019.4,   68.9, -999.0
29-08-2022, 00:22:18,     64,    0.0,   13.7,   0.00,   0.00, 1019.4,   68.9, -999.0
29-08-2022, 00:22:28,     64,    0.0,   13.7,   0.00,   0.00, 1019.4,   68.9, -999.0
29-08-2022, 00:22:38,     64,    0.0,   13.8,   0.00,   0.00, 1019.4,   69.0, -999.0
29-08-2022, 00:22:48,     64,    0.0,   13.9,   0.00,   0.00, 1019.4,   69.1, -999.0
29-08-2022, 00:22:58,     64,    0.0,   13.8,   0.00,   0.00, 1019.4,   69.0, -999.0
29-08-2022, 00:23:08,     64,    0.0,   13.9,   0.00,   0.00, 1019.4,   69.0, -999.0
29-08-2022, 00:23:18,     64,    0.0,   13.8,   0.00,   0.00, 1019.4,   69.0, -999.0
29-08-2022, 00:23:28,     64,    0.0,   13.8,   0.00,   0.00, 1019.4,   68.9, -999.0
29-08-2022, 00:23:38,     64,    0.0,   13.8,   0.00,   0.00, 1019.4,   68.9, -999.0
29-08-2022, 00:23:48,     63,    0.0,   13.8,   0.00,   0.00, 1019.4,   68.9, -999.0
29-08-2022, 00:23:58,     64,    0.0,   13.8,   0.00,   0.00, 1019.4,   68.9, -999.0
29-08-2022, 00:24:08,     64,    0.0,   13.7,   0.00,   0.00, 1019.4,   69.0, -999.0
29-08-2022, 00:24:18,     64,    0.0,   13.7,   0.00,   0.00, 1019.4,   69.0, -999.0
29-08-2022, 00:24:27,     64,    0.0,   13.8,   0.00,   0.00, 1019.4,   69.0, -999.0
29-08-2022, 00:24:38,     64,    0.0,   13.7,   0.00,   0.00, 1019.4,   69.0, -999.0
29-08-2022, 00:24:48,     64,    0.0,   13.8,   0.00,   0.00, 1019.4,   69.1, -999.0
29-08-2022, 00:24:57,     64,    0.0,   13.8,   0.00,   0.00, 1019.4,   69.2, -999.0
29-08-2022, 00:25:07,     64,    0.0,   13.7,   0.00,   0.00, 1019.4,   69.0, -999.0
29-08-2022, 00:25:17,     64,    0.0,   13.7,   0.00,   0.00, 1019.4,   69.2, -999.0
29-08-2022, 00:25:27,     64,    0.0,   13.7,   0.00,   0.00, 1019.4,   69.2, -999.0
29-08-2022, 00:25:37,     63,    0.0,   13.7,   0.00,   0.00, 1019.4,   69.1, -999.0
29-08-2022, 00:25:47,     64,    0.0,   13.7,   0.00,   0.00, 1019.4,   69.2, -999.0
29-08-2022, 00:25:57,     64,    0.0,   13.8,   0.00,   0.00, 1019.4,   69.2, -999.0
29-08-2022, 00:26:07,     64,    0.0,   13.8,   0.00,   0.00, 1019.4,   69.2, -999.0
29-08-2022, 00:26:17,     64,    0.0,   13.8,   0.00,   0.00, 1019.4,   69.1, -999.0
29-08-2022, 00:26:27,     64,    0.0,   13.7,   0.00,   0.00, 1019.4,   69.2, -999.0
29-08-2022, 00:26:37,     63,    0.0,   13.6,   0.00,   0.00, 1019.4,   69.1, -999.0
29-08-2022, 00:26:47,     64,    0.0,   13.7,   0.00,   0.00, 1019.4,   69.1, -999.0
29-08-2022, 00:26:57,     64,    0.0,   13.7,   0.00,   0.00, 1019.4,   69.2, -999.0
29-08-2022, 00:27:07,     64,    0.0,   13.7,   0.00,   0.00, 1019.4,   69.2, -999.0
29-08-2022, 00:27:17,     64,    0.0,   13.8,   0.00,   0.00, 1019.4,   69.4, -999.0
29-08-2022, 00:27:26,     64,    0.0,   13.8,   0.00,   0.00, 1019.4,   69.4, -999.0
29-08-2022, 00:27:36,     64,    0.0,   13.8,   0.00,   0.00, 1019.4,   69.5, -999.0
29-08-2022, 00:27:47,     64,    0.0,   13.9,   0.00,   0.00, 1019.4,   69.3, -999.0
29-08-2022, 00:27:56,     64,    0.0,   13.9,   0.00,   0.00, 1019.4,   69.3, -999.0
29-08-2022, 00:28:06,     64,    0.0,   13.8,   0.00,   0.00, 1019.4,   69.3, -999.0
29-08-2022, 00:28:17,     64,    0.0,   13.8,   0.00,   0.00, 1019.4,   69.3, -999.0
29-08-2022, 00:28:26,     64,    0.0,   13.8,   0.00,   0.00, 1019.4,   69.3, -999.0
29-08-2022, 00:28:36,     64,    0.0,   13.7,   0.00,   0.00, 1019.4,   69.2, -999.0
29-08-2022, 00:28:46,     64,    0.0,   13.7,   0.00,   0.00, 1019.4,   69.2, -999.0
29-08-2022, 00:28:56,     64,    0.0,   13.8,   0.00,   0.00, 1019.4,   69.2, -999.0
29-08-2022, 00:29:06,     64,    0.0,   13.8,   0.00,   0.00, 1019.4,   69.2, -999.0
29-08-2022, 00:29:16,     64,    0.0,   13.8,   0.00,   0.00, 1019.4,   69.3, -999.0
29-08-2022, 00:29:26,     64,    0.0,   13.7,   0.00,   0.00, 1019.4,   69.2, -999.0
29-08-2022, 00:29:36,     64,    0.0,   13.8,   0.00,   0.00, 1019.4,   69.3, -999.0
29-08-2022, 00:29:46,     64,    0.0,   13.7,   0.00,   0.00, 1019.4,   69.2, -999.0
29-08-2022, 00:29:56,     64,    0.0,   13.7,   0.00,   0.00, 1019.4,   69.2, -999.0
29-08-2022, 00:30:06,     64,    0.0,   13.8,   0.00,   0.00, 1019.4,   69.3, -999.0
29-08-2022, 00:30:16,     64,    0.0,   13.8,   0.00,   0.00, 1019.4,   69.2, -999.0
29-08-2022, 00:30:26,     64,    0.0,   13.8,   0.00,   0.00, 1019.4,   69.4, -999.0
29-08-2022, 00:30:35,     64,    0.0,   13.8,   0.00,   0.00, 1019.4,   69.3, -999.0
29-08-2022, 00:30:46,     64,    0.0,   13.8,   0.00,   0.00, 1019.4,   69.3, -999.0
29-08-2022, 00:30:55,     64,    0.0,   13.8,   0.00,   0.00, 1019.4,   69.4, -999.0
29-08-2022, 00:31:05,     64,    0.0,   13.7,   0.00,   0.00, 1019.4,   69.2, -999.0
29-08-2022, 00:31:15,     64,    0.0,   13.7,   0.00,   0.00, 1019.4,   69.2, -999.0
29-08-2022, 00:31:25,     64,    0.0,   13.7,   0.00,   0.00, 1019.4,   69.3, -999.0
29-08-2022, 00:31:35,     64,    0.0,   13.7,   0.00,   0.00, 1019.4,   69.3, -999.0
29-08-2022, 00:31:45,     64,    0.0,   13.7,   0.00,   0.00, 1019.4,   69.2, -999.0
29-08-2022, 00:31:55,     64,    0.0,   13.7,   0.00,   0.00, 1019.4,   69.3, -999.0
29-08-2022, 00:32:05,     64,    0.0,   13.7,   0.00,   0.00, 1019.4,   69.3, -999.0
29-08-2022, 00:32:15,     64,    0.0,   13.7,   0.00,   0.00, 1019.4,   69.4, -999.0
29-08-2022, 00:32:25,     64,    0.0,   13.7,   0.00,   0.00, 1019.4,   69.4, -999.0
29-08-2022, 00:32:35,     64,    0.0,   13.7,   0.00,   0.00, 1019.4,   69.4, -999.0
29-08-2022, 00:32:45,     64,    0.0,   13.7,   0.00,   0.00, 1019.4,   69.5, -999.0
29-08-2022, 00:32:55,     64,    0.0,   13.7,   0.00,   0.00, 1019.4,   69.5, -999.0
29-08-2022, 00:33:05,     64,    0.0,   13.7,   0.00,   0.00, 1019.4,   69.6, -999.0
29-08-2022, 00:33:15,     64,    0.0,   13.8,   0.00,   0.00, 1019.4,   69.6, -999.0
29-08-2022, 00:33:25,     63,    0.0,   13.7,   0.00,   0.00, 1019.4,   69.5, -999.0
29-08-2022, 00:33:34,     64,    0.0,   13.7,   0.00,   0.00, 1019.3,   69.5, -999.0
29-08-2022, 00:33:44,     64,    0.0,   13.9,   0.00,   0.00, 1019.4,   69.5, -999.0
29-08-2022, 00:33:55,     64,    0.0,   13.8,   0.00,   0.00, 1019.3,   69.5, -999.0
29-08-2022, 00:34:04,     64,    0.0,   13.8,   0.00,   0.00, 1019.4,   69.6, -999.0
29-08-2022, 00:34:14,     64,    0.0,   13.7,   0.00,   0.00, 1019.4,   69.6, -999.0
29-08-2022, 00:34:24,     64,    0.0,   13.7,   0.00,   0.00, 1019.4,   69.5, -999.0
29-08-2022, 00:34:34,     64,    0.0,   13.7,   0.00,   0.00, 1019.4,   69.5, -999.0
29-08-2022, 00:34:44,     64,    0.0,   13.7,   0.00,   0.00, 1019.4,   69.6, -999.0
29-08-2022, 00:34:54,     64,    0.0,   13.7,   0.00,   0.00, 1019.4,   69.5, -999.0
29-08-2022, 00:35:04,     63,    0.0,   13.7,   0.00,   0.00, 1019.4,   69.5, -999.0
29-08-2022, 00:35:14,     64,    0.0,   13.7,   0.00,   0.00, 1019.4,   69.4, -999.0
29-08-2022, 00:35:24,     63,    0.0,   13.7,   0.00,   0.00, 1019.4,   69.5, -999.0
29-08-2022, 00:35:34,     64,    0.0,   13.7,   0.00,   0.00, 1019.4,   69.6, -999.0
29-08-2022, 00:35:44,     64,    0.0,   13.7,   0.00,   0.00, 1019.4,   69.6, -999.0
29-08-2022, 00:35:54,     64,    0.0,   13.7,   0.00,   0.00, 1019.4,   69.5, -999.0
29-08-2022, 00:36:04,     64,    0.0,   13.7,   0.00,   0.00, 1019.4,   69.5, -999.0
29-08-2022, 00:36:13,     64,    0.0,   13.7,   0.00,   0.00, 1019.4,   69.5, -999.0
29-08-2022, 00:36:24,     64,    0.0,   13.7,   0.00,   0.00, 1019.4,   69.5, -999.0
29-08-2022, 00:36:34,     64,    0.0,   13.7,   0.00,   0.00, 1019.4,   69.6, -999.0
29-08-2022, 00:36:43,     64,    0.0,   13.7,   0.00,   0.00, 1019.4,   69.5, -999.0
29-08-2022, 00:36:53,     64,    0.0,   13.6,   0.00,   0.00, 1019.4,   69.7, -999.0
29-08-2022, 00:37:03,     64,    0.0,   13.8,   0.00,   0.00, 1019.4,   69.6, -999.0
29-08-2022, 00:37:13,     64,    0.0,   13.7,   0.00,   0.00, 1019.4,   69.8, -999.0
29-08-2022, 00:37:23,     64,    0.0,   13.6,   0.00,   0.00, 1019.4,   69.6, -999.0
29-08-2022, 00:37:33,     64,    0.0,   13.6,   0.00,   0.00, 1019.4,   69.7, -999.0
29-08-2022, 00:37:43,     64,    0.0,   13.7,   0.00,   0.00, 1019.4,   69.7, -999.0
29-08-2022, 00:37:53,     64,    0.0,   13.7,   0.00,   0.00, 1019.4,   69.8, -999.0
29-08-2022, 00:38:03,     64,    0.0,   13.6,   0.00,   0.00, 1019.4,   69.7, -999.0
29-08-2022, 00:38:13,     64,    0.0,   13.6,   0.00,   0.00, 1019.4,   69.7, -999.0
29-08-2022, 00:38:23,     64,    0.0,   13.6,   0.00,   0.00, 1019.4,   69.8, -999.0
29-08-2022, 00:38:33,     64,    0.0,   13.7,   0.00,   0.00, 1019.3,   69.8, -999.0
29-08-2022, 00:38:43,     64,    0.0,   13.6,   0.00,   0.00, 1019.4,   69.8, -999.0
29-08-2022, 00:38:53,     64,    0.0,   13.6,   0.00,   0.00, 1019.4,   69.8, -999.0
29-08-2022, 00:39:03,     64,    0.0,   13.7,   0.00,   0.00, 1019.4,   69.8, -999.0
29-08-2022, 00:39:13,     64,    0.0,   13.6,   0.00,   0.00, 1019.4,   69.8, -999.0
29-08-2022, 00:39:23,     64,    0.0,   13.6,   0.00,   0.00, 1019.4,   69.9, -999.0
29-08-2022, 00:39:33,     64,    0.0,   13.6,   0.00,   0.00, 1019.3,   69.8, -999.0
29-08-2022, 00:39:42,     64,    0.0,   13.6,   0.00,   0.00, 1019.4,   69.8, -999.0
29-08-2022, 00:39:52,     64,    0.0,   13.6,   0.00,   0.00, 1019.4,   69.9, -999.0
29-08-2022, 00:40:03,     64,    0.0,   13.6,   0.00,   0.00, 1019.3,   69.9, -999.0
29-08-2022, 00:40:12,     64,    0.0,   13.6,   0.00,   0.00, 1019.4,   69.9, -999.0
29-08-2022, 00:40:22,     64,    0.0,   13.6,   0.00,   0.00, 1019.4,   70.0, -999.0
29-08-2022, 00:40:32,     64,    0.0,   13.5,   0.00,   0.00, 1019.3,   70.1, -999.0
29-08-2022, 00:40:42,     64,    0.0,   13.5,   0.00,   0.00, 1019.3,   70.0, -999.0
29-08-2022, 00:40:52,     64,    0.0,   13.6,   0.00,   0.00, 1019.3,   70.0, -999.0
29-08-2022, 00:41:02,     64,    0.0,   13.6,   0.00,   0.00, 1019.3,   70.1, -999.0
29-08-2022, 00:41:12,     64,    0.0,   13.6,   0.00,   0.00, 1019.4,   70.0, -999.0
29-08-2022, 00:41:22,     64,    0.0,   13.6,   0.00,   0.00, 1019.4,   70.2, -999.0
29-08-2022, 00:41:32,     64,    0.0,   13.6,   0.00,   0.00, 1019.4,   70.1, -999.0
29-08-2022, 00:41:42,     64,    0.0,   13.6,   0.00,   0.00, 1019.4,   70.1, -999.0
29-08-2022, 00:41:52,     63,    0.0,   13.6,   0.00,   0.00, 1019.3,   70.1, -999.0
29-08-2022, 00:42:02,     64,    0.0,   13.6,   0.00,   0.00, 1019.3,   70.2, -999.0
29-08-2022, 00:42:12,     64,    0.0,   13.6,   0.00,   0.00, 1019.3,   70.1, -999.0
29-08-2022, 00:42:21,     64,    0.0,   13.5,   0.00,   0.00, 1019.3,   70.1, -999.0
29-08-2022, 00:42:32,     64,    0.0,   13.5,   0.00,   0.00, 1019.4,   70.1, -999.0
29-08-2022, 00:42:42,     64,    0.0,   13.5,   0.00,   0.00, 1019.3,   70.1, -999.0
29-08-2022, 00:42:51,     64,    0.0,   13.5,   0.00,   0.00, 1019.3,   70.2, -999.0
29-08-2022, 00:43:01,     64,    0.0,   13.5,   0.00,   0.00, 1019.4,   70.1, -999.0
29-08-2022, 00:43:11,     64,    0.0,   13.5,   0.00,   0.00, 1019.3,   70.2, -999.0
29-08-2022, 00:43:21,     64,    0.0,   13.5,   0.00,   0.00, 1019.3,   70.1, -999.0
29-08-2022, 00:43:31,     64,    0.0,   13.5,   0.00,   0.00, 1019.4,   70.2, -999.0
29-08-2022, 00:43:41,     64,    0.0,   13.5,   0.00,   0.00, 1019.3,   70.3, -999.0
29-08-2022, 00:43:51,     64,    0.0,   13.5,   0.00,   0.00, 1019.4,   70.3, -999.0
29-08-2022, 00:44:01,     64,    0.0,   13.5,   0.00,   0.00, 1019.4,   70.4, -999.0
29-08-2022, 00:44:11,     64,    0.0,   13.5,   0.00,   0.00, 1019.4,   70.4, -999.0
29-08-2022, 00:44:21,     64,    0.0,   13.5,   0.00,   0.00, 1019.4,   70.5, -999.0
29-08-2022, 00:44:31,     64,    0.0,   13.5,   0.00,   0.00, 1019.3,   70.5, -999.0
29-08-2022, 00:44:41,     64,    0.0,   13.5,   0.00,   0.00, 1019.3,   70.5, -999.0
29-08-2022, 00:44:51,     64,    0.0,   13.4,   0.00,   0.00, 1019.3,   70.5, -999.0
29-08-2022, 00:45:01,     64,    0.0,   13.4,   0.00,   0.00, 1019.3,   70.5, -999.0
29-08-2022, 00:45:11,     64,    0.0,   13.4,   0.00,   0.00, 1019.3,   70.5, -999.0
29-08-2022, 00:45:21,     64,    0.0,   13.4,   0.00,   0.00, 1019.4,   70.6, -999.0
29-08-2022, 00:45:30,     64,    0.0,   13.5,   0.00,   0.00, 1019.4,   70.6, -999.0
29-08-2022, 00:45:41,     64,    0.0,   13.5,   0.00,   0.00, 1019.4,   70.7, -999.0
29-08-2022, 00:45:50,     64,    0.0,   13.5,   0.00,   0.00, 1019.3,   70.7, -999.0
29-08-2022, 00:46:00,     64,    0.0,   13.5,   0.00,   0.00, 1019.4,   70.8, -999.0
29-08-2022, 00:46:10,     64,    0.0,   13.5,   0.00,   0.00, 1019.3,   70.7, -999.0
29-08-2022, 00:46:20,     64,    0.0,   13.4,   0.00,   0.00, 1019.4,   70.7, -999.0
29-08-2022, 00:46:30,     64,    0.0,   13.5,   0.00,   0.00, 1019.4,   70.7, -999.0
29-08-2022, 00:46:40,     64,    0.0,   13.5,   0.00,   0.00, 1019.4,   70.7, -999.0